Ogden, UT

3:40 AM MDT on June 28, 2017 (GMT -0600)
Ogden-Hinckley

Weather History for KOGD - March, 2013

Change the Weather History Date:

Monday, March 18, 2013

  Actual Average Record
Temperature  
Mean Temperature 41 °F -  
Max Temperature 50 °F 52 °F 75 °F (2017)
Min Temperature 34 °F 31 °F 8 °F (1971)
Degree Days  
Heating Degree Days 24    
Moisture  
Dew Point 17 °F    
Average Humidity 39    
Maximum Humidity 52    
Minimum Humidity 27    
Precipitation  
Precipitation 0.00 in - - ()
Sea Level Pressure  
Sea Level Pressure 30.04 in    
Wind  
Wind Speed 5 mph (West)    
Max Wind Speed 13 mph    
Max Gust Speed 20 mph    
Visibility 10 miles    
Events      
Averages and records for this station are not official NWS values.
T = Trace of Precipitation, MM = Missing Value Source: NWS Daily Summary

Daily Weather History Graph

Daily Weather History Graph

Search for Another Location

Airport or City:

Trip Planner

Search our weather history database for the weather conditions in past years. The results will help you decide how hot, cold, wet, or windy it might be!

Date:

Astronomy

Mar. 18, 2013 Rise Set
Actual Time 7:34 AM MDT 7:38 PM MDT
Civil Twilight 7:06 AM MDT 8:05 PM MDT
Nautical Twilight 6:34 AM MDT 8:38 PM MDT
Astronomical Twilight 6:01 AM MDT 9:10 PM MDT
Moon 11:33 AM MDT (3/18) 1:44 AM MDT (3/18)
Length of Visible Light 12h 59m
Length of Day
12h 04m
Waxing Crescent, 41% of the Moon is Illuminated
Mar 18
Waxing Crescent
Mar 19
First Quarter
Mar 27
Full
Apr 2
Last Quarter
Apr 10
New

Hourly Weather History & Observations

Time (MDT) Temp. Windchill Dew Point Humidity Pressure Visibility Wind Dir Wind Speed Gust Speed Precip Events Conditions
12:53 AM 35.1 °F 31.0 °F 10.9 °F 37% 30.00 in 10.0 mi NW 4.6 mph - N/A   Overcast
1:53 AM 34.0 °F 28.8 °F 12.9 °F 42% 30.01 in 10.0 mi NW 5.8 mph - N/A   Overcast
2:53 AM 34.0 °F 31.0 °F 18.0 °F 52% 30.02 in 10.0 mi NNW 3.5 mph - N/A   Overcast
3:53 AM 34.0 °F 31.0 °F 15.1 °F 46% 30.02 in 10.0 mi North 3.5 mph - N/A   Overcast
4:53 AM 35.1 °F - 18.0 °F 50% 30.01 in 10.0 mi Calm Calm - N/A   Overcast
5:53 AM 35.1 °F 31.0 °F 17.1 °F 48% 30.01 in 10.0 mi South 4.6 mph - N/A   Mostly Cloudy
6:53 AM 34.0 °F 28.0 °F 16.0 °F 48% 30.03 in 10.0 mi NW 6.9 mph - N/A   Overcast
7:53 AM 34.0 °F 31.0 °F 18.0 °F 52% 30.08 in 10.0 mi WSW 3.5 mph - N/A   Overcast
8:53 AM 37.0 °F - 17.1 °F 44% 30.09 in 10.0 mi Calm Calm - N/A   Mostly Cloudy
9:53 AM 39.0 °F 35.7 °F 18.0 °F 43% 30.09 in 10.0 mi SE 4.6 mph - N/A   Overcast
10:53 AM 43.0 °F 36.8 °F 21.0 °F 42% 30.08 in 10.0 mi SSW 11.5 mph - N/A   Mostly Cloudy
11:53 AM 42.1 °F 39.2 °F 18.0 °F 38% 30.09 in 10.0 mi SW 4.6 mph - N/A   Overcast
12:53 PM 44.1 °F 38.1 °F 17.1 °F 34% 30.08 in 10.0 mi WSW 11.5 mph 16.1 mph N/A   Overcast
1:53 PM 45.0 °F 39.3 °F 16.0 °F 31% 30.07 in 10.0 mi West 11.5 mph 16.1 mph N/A   Overcast
2:53 PM 46.9 °F - 15.1 °F 28% 30.04 in 10.0 mi WNW 12.7 mph 19.6 mph N/A   Overcast
3:53 PM 48.0 °F - 16.0 °F 28% 30.03 in 10.0 mi Variable 5.8 mph 17.3 mph N/A   Clear
4:53 PM 48.0 °F - 16.0 °F 28% 30.02 in 10.0 mi WNW 6.9 mph - N/A   Clear
5:53 PM 48.0 °F - 15.1 °F 27% 30.00 in 10.0 mi Variable 4.6 mph - N/A   Clear
6:53 PM 48.0 °F - 16.0 °F 28% 30.00 in 10.0 mi NW 3.5 mph - N/A   Clear
7:53 PM 45.0 °F 43.5 °F 16.0 °F 31% 30.01 in 10.0 mi West 3.5 mph - N/A   Clear
8:53 PM 42.1 °F - 16.0 °F 35% 30.02 in 10.0 mi Calm Calm - N/A   Clear
9:53 PM 39.9 °F 37.8 °F 19.0 °F 43% 30.04 in 10.0 mi Variable 3.5 mph - N/A   Clear
10:53 PM 43.0 °F 41.3 °F 17.1 °F 35% 30.05 in 10.0 mi West 3.5 mph - N/A   Clear
11:53 PM 39.0 °F 36.8 °F 19.9 °F 46% 30.07 in 10.0 mi North 3.5 mph - N/A   Clear